DW4509 Weather Reports


Display with metric or nautical units.
time (UTC)temp
F
wind
direction
speed
MPH
gust
MPH
rain 1hr
in
rain 24hr
in
rain mn
in
humidity
%
barometer
mb
20260508060437 48 331 0.0 0.0 0.00 0.00 0.00 87 1017.2
20260508055448 48 331 0.0 0.0 0.00 0.00 0.00 87 1017.1
20260508054504 48 331 0.0 0.0 0.00 0.00 0.00 87 1017.0
20260508053523 48 331 0.0 0.0 0.00 0.00 0.00 87 1017.0
20260508052528 48 331 0.0 0.0 0.00 0.00 0.00 86 1016.9
20260508051517 48 331 0.0 0.0 0.00 0.00 0.00 86 1016.9
20260508050521 48 331 0.0 0.0 0.00 0.00 0.00 86 1016.8
20260508045521 48 331 0.0 0.0 0.00 0.00 0.00 86 1016.8
20260508043345 48 331 0.0 0.0 0.00 0.00 0.00 85 1016.6
20260508042322 48 330 0.0 0.0 0.00 0.00 0.00 85 1016.7
20260508041325 48 331 0.0 0.0 0.00 0.00 0.00 85 1016.7
20260508040324 48 330 0.0 0.0 0.00 0.00 0.00 85 1016.6
20260508034138 48 331 0.0 0.0 0.00 0.00 0.00 84 1016.6
20260508033150 48 331 0.0 0.0 0.00 0.00 0.00 84 1016.5
20260508032130 48 330 0.0 0.0 0.00 0.00 0.00 84 1016.6
20260508031122 48 331 0.0 0.0 0.00 0.00 0.00 83 1016.6
20260508030144 48 331 0.0 0.0 0.00 0.00 0.00 83 1016.5
20260508024026 49 331 0.0 0.0 0.00 0.00 0.00 82 1016.6
20260508023038 49 331 0.0 0.0 0.00 0.00 0.00 82 1016.5
20260508022031 49 331 0.0 0.0 0.00 0.00 0.00 82 1016.6
20260508021042 49 331 0.0 0.0 0.00 0.00 0.00 81 1016.4
20260508020106 49 331 0.0 0.0 0.00 0.00 0.00 81 1016.4
20260508013925 49 331 0.0 0.0 0.00 0.00 0.00 81 1016.4
20260508012928 50 331 0.0 0.0 0.00 0.00 0.00 81 1016.4
20260508011856 50 331 0.0 0.0 0.00 0.00 0.00 80 1016.5
20260508010914 50 331 0.0 0.0 0.00 0.00 0.00 80 1016.5
20260508005846 50 331 0.0 0.0 0.00 0.00 0.00 80 1016.5
20260508004903 50 330 0.0 0.0 0.00 0.00 0.00 80 1016.4
20260508003917 50 330 0.0 0.0 0.00 0.00 0.00 79 1016.4
20260508002918 50 318 0.0 0.0 0.00 0.00 0.00 79 1016.5
20260508001941 50 352 0.0 0.0 0.00 0.00 0.00 79 1016.5
20260508000958 50 117 0.0 0.0 0.00 0.00 0.00 80 1016.6
20260508000019 50 121 0.0 0.0 0.00 0.00 0.00 79 1016.6
20260507233926 51 122 0.0 0.0 0.00 0.00 0.00 79 1016.6
20260507231726 51 192 0.0 0.0 0.00 0.00 0.00 77 1016.6
20260507230655 51 300 0.0 0.0 0.00 0.00 0.00 77 1016.7
20260507225653 51 217 0.0 0.0 0.00 0.00 0.00 76 1016.7
20260507224711 51 271 0.0 0.0 0.00 0.00 0.00 77 1016.7
20260507223639 51 138 0.0 0.0 0.00 0.00 0.00 76 1016.6
20260507222620 51 326 0.0 0.0 0.00 0.00 0.00 76 1016.6
20260507220418 51 7 0.0 0.0 0.00 0.00 0.00 77 1016.6
20260507215432 51 8 0.0 0.0 0.00 0.00 0.00 76 1016.7
20260507214413 51 8 0.0 0.0 0.00 0.00 0.00 76 1016.6
20260507213436 51 8 0.0 0.0 0.00 0.00 0.00 75 1016.6
20260507212438 52 8 0.0 0.0 0.00 0.00 0.00 75 1016.6
20260507211458 52 8 0.0 0.0 0.00 0.00 0.00 73 1016.4
20260507210425 52 10 0.0 0.0 0.00 0.00 0.00 73 1016.5
20260507204316 52 258 0.0 0.0 0.00 0.00 0.00 73 1016.4
20260507202131 52 101 0.0 0.0 0.00 0.00 0.00 72 1016.3
20260507195950 53 113 0.0 0.0 0.00 0.00 0.00 71 1016.0
20260507195015 53 114 0.0 0.0 0.00 0.00 0.00 71 1016.0
20260507191713 54 43 0.0 0.0 0.00 0.00 0.00 73 1015.8
20260507190655 54 349 0.0 3.0 0.00 0.00 0.00 71 1015.8
20260507185623 55 349 0.0 0.0 0.00 0.00 0.00 70 1015.7
20260507184630 55 205 0.0 0.0 0.00 0.00 0.00 68 1015.6
20260507183648 56 32 0.0 0.0 0.00 0.00 0.00 67 1015.6
20260507181512 57 302 0.0 0.0 0.00 0.00 0.00 65 1015.5
20260507180523 57 161 0.0 0.0 0.00 0.00 0.00 66 1015.4
20260507175542 58 154 0.0 0.0 0.00 0.00 0.00 64 1015.4
20260507174549 58 304 0.0 0.0 0.00 0.00 0.00 65 1015.5
20260507173614 59 105 0.0 0.0 0.00 0.00 0.00 62 1015.5
20260507172549 60 238 0.0 0.0 0.00 0.00 0.00 61 1015.5
20260507171544 60 117 0.0 0.0 0.00 0.00 0.00 61 1015.5
20260507170608 60 281 0.0 0.0 0.00 0.00 0.00 63 1015.5
20260507165558 60 243 0.0 0.0 0.00 0.00 0.00 62 1015.5
20260507164544 61 139 0.0 0.0 0.00 0.00 0.00 60 1015.5
20260507163510 61 184 0.0 1.0 0.00 0.00 0.00 61 1015.5
20260507162456 61 334 0.0 4.0 0.00 0.00 0.00 61 1015.5
20260507161504 60 227 0.0 0.0 0.00 0.00 0.00 63 1015.6
20260507160449 59 165 0.0 3.0 0.00 0.00 0.00 63 1015.6
20260507155422 58 193 0.0 0.0 0.00 0.00 0.00 63 1015.8
20260507154416 58 160 0.0 0.0 0.00 0.00 0.00 65 1015.8
20260507153410 58 46 0.0 1.0 0.00 0.00 0.00 61 1015.9
20260507152423 59 286 0.0 0.0 0.00 0.00 0.00 64 1015.9
20260507151431 59 328 0.0 0.0 0.00 0.00 0.00 60 1016.0
20260507150434 59 80 0.0 0.0 0.00 0.00 0.00 58 1016.0
20260507143139 59 139 0.0 1.0 0.00 0.00 0.00 61 1016.0
20260507142146 59 340 0.0 0.0 0.00 0.00 0.00 59 1016.2
20260507141146 59 148 0.0 1.0 0.00 0.00 0.00 60 1016.3
20260507140126 59 13 0.0 1.0 0.00 0.00 0.00 59 1016.3
20260507135105 60 257 0.0 1.0 0.00 0.00 0.00 57 1016.3
20260507134037 60 110 0.0 0.0 0.00 0.00 0.00 59 1016.3
20260507133101 60 242 0.0 0.0 0.00 0.00 0.00 61 1016.3
20260507132115 60 113 0.0 4.0 0.00 0.00 0.00 57 1016.3
20260507130012 60 125 0.0 1.0 0.00 0.00 0.00 58 1016.4
20260507123836 58 352 0.0 0.0 0.00 0.00 0.00 59 1016.5
20260507122857 58 268 0.0 1.0 0.00 0.00 0.00 61 1016.5
20260507121915 57 32 0.0 0.0 0.00 0.00 0.00 63 1016.5
20260507120855 57 304 0.0 0.0 0.00 0.00 0.00 66 1016.7
20260507115833 57 11 0.0 0.0 0.00 0.00 0.00 64 1016.8
20260507114841 57 81 0.0 0.0 0.00 0.00 0.00 66 1016.8
20260507113840 56 88 0.0 0.0 0.00 0.00 0.00 62 1016.8
20260507111633 57 128 0.0 1.0 0.00 0.00 0.00 60 1016.9
20260507110616 57 278 0.0 0.0 0.00 0.00 0.00 63 1017.0
20260507102224 56 6 0.0 2.0 0.00 0.00 0.00 66 1017.2
20260507101210 56 124 0.0 0.0 0.00 0.00 0.00 67 1017.2
20260507095133 56 125 0.0 0.0 0.00 0.00 0.00 65 1017.3
20260507094143 56 18 0.0 0.0 0.00 0.00 0.00 66 1017.1
20260507093152 56 79 0.0 0.0 0.00 0.00 0.00 67 1017.1
20260507092125 56 243 0.0 0.0 0.00 0.00 0.00 67 1017.1
20260507091057 55 217 0.0 3.0 0.00 0.00 0.00 68 1017.3
20260507090023 54 53 0.0 0.0 0.00 0.00 0.00 71 1017.3
20260507083831 53 250 0.0 1.0 0.00 0.00 0.00 71 1017.4
20260507082830 53 94 0.0 1.0 0.00 0.00 0.00 73 1017.4
20260507080718 52 27 0.0 0.0 0.00 0.00 0.00 73 1017.4
20260507075715 52 136 0.0 0.0 0.00 0.00 0.00 74 1017.5
20260507074716 51 133 0.0 0.0 0.00 0.00 0.00 75 1017.5
20260507072549 51 0 0.0 0.0 0.00 0.00 0.00 76 1017.5
20260507070442 48 82 0.0 0.0 0.00 0.00 0.00 82 1017.6
20260507065413 48 120 0.0 0.0 0.00 0.00 0.00 87 1017.6
20260507064435 47 74 0.0 0.0 0.00 0.00 0.00 89 1017.5
20260507062324 42 268 0.0 0.0 0.00 0.00 0.00 89 1017.4
20260507061312 43 268 0.0 0.0 0.00 0.00 0.00 89 1017.3